This is the latest recevied weather packets stored in our database for station/object E22ZMG-3. If no packets are shown the sender has not sent any weather packets the latest 10 day(s).
| Time | Temp. | Humidity | Pressure | Rain* | Wind** | Luminosity | Snow |
|---|---|---|---|---|---|---|---|
| 1777869124 | 38.33° C | 32% | 977 hPa | - | - | 0 W/m² | - |
| 1777868500 | 39.44° C | 31% | 977 hPa | - | - | 0 W/m² | - |
| 1777867876 | 38.33° C | 32% | 977 hPa | - | - | 0 W/m² | - |
| 1777867251 | 38.89° C | 31% | 977 hPa | - | - | 0 W/m² | - |
| 1777866625 | 37.78° C | 34% | 977 hPa | - | - | 0 W/m² | - |
| 1777864127 | 37.78° C | 36% | 978 hPa | - | - | 0 W/m² | - |
| 1777862878 | 36.11° C | 37% | 978 hPa | - | - | 0 W/m² | - |
| 1777845118 | 31.11° C | 56% | 976 hPa | - | - | 0 W/m² | - |
| 1777843243 | 31.11° C | 55% | 975 hPa | - | - | 0 W/m² | - |
| 1777840743 | 31.11° C | 55% | 975 hPa | - | - | 0 W/m² | - |
| 1777840118 | 31.11° C | 56% | 975 hPa | - | - | 0 W/m² | - |
| 1777839493 | 30.56° C | 57% | 975 hPa | - | - | 0 W/m² | - |
| 1777838578 | 31.11° C | 55% | 975 hPa | - | - | 0 W/m² | - |
| 1777837328 | 31.11° C | 55% | 975 hPa | - | - | 0 W/m² | - |
| 1777835451 | 31.11° C | 55% | 975 hPa | - | - | 0 W/m² | - |
| 1777834826 | 31.11° C | 55% | 976 hPa | - | - | 0 W/m² | - |
| 1777833156 | 32.22° C | 53% | 976 hPa | - | - | 0 W/m² | - |
| 1777832530 | 31.67° C | 55% | 976 hPa | - | - | 0 W/m² | - |
| 1777831905 | 32.22° C | 54% | 976 hPa | - | - | 0 W/m² | - |
| 1777831280 | 31.67° C | 53% | 976 hPa | - | - | 0 W/m² | - |
| 1777826903 | 32.78° C | 51% | 976 hPa | - | - | 0 W/m² | - |
| 1777826277 | 32.78° C | 50% | 976 hPa | - | - | 0 W/m² | - |
| 1777825027 | 33.89° C | 48% | 976 hPa | - | - | 0 W/m² | - |
| 1777823153 | 33.89° C | 48% | 976 hPa | - | - | 0 W/m² | - |
| 1777816904 | 34.44° C | 45% | 974 hPa | - | - | 0 W/m² | - |
* Rain since midnight (hover to see other rain measurements)
** Current wind speed in m/s (hover to see current wind gust speed)